CAPE
0 0 0 0 0 0 0 0 0 12 8 962 946 978 934 873 667 266 227 81 785 939 890 669 543 323 201 217 263 316 387 288 131 17 0 0 0 0 0 0 0 0 0 0 0 0 0 0 0
0 0 0 0 0 0 0 0 205 549 766 697 774 938 933 760 967 524 190 447 869 996 921 737 668 501 368 379 407 439 461 308 91 11 0 0 0 0 0 0 0 0 0 0 0 0 0 0 0
0 0 0 0 0 0 0 0 34 694 782 445 496 617 779 759 1015 555 457 545 740 990 786 781 580 454 467 515 416 476 392 197 68 12 3 1 0 0 26 14 2 0 0 0 0 0 0 0 0
0 0 0 0 0 0 0 19 312 459 385 204 168 390 500 747 943 813 625 662 719 894 936 689 370 316 410 526 536 379 267 121 70 42 23 31 21 34 28 0 0 0 0 0 0 0 0 0 0
0 0 0 0 0 0 306 397 496 471 281 160 49 220 415 728 746 375 711 712 724 820 844 420 216 294 469 533 479 242 176 124 110 55 46 61 40 32 1 0 0 0 0 0 0 0 0 0 0
0 0 0 0 0 0 345 407 464 380 217 22 198 148 397 530 684 478 488 555 630 470 380 216 124 191 296 402 373 223 154 124 102 46 38 45 30 1 0 0 0 0 0 0 0 0 0 0 0
0 0 0 0 0 0 215 345 339 298 137 38 0 5 279 465 432 339 319 267 179 97 15 31 79 95 140 187 276 171 94 96 54 24 37 13 0 0 0 0 0 0 0 0 0 0 0 0 0
0 0 0 0 0 0 446 423 202 94 53 3 143 2 86 351 241 241 130 37 10 7 21 38 13 35 118 242 225 96 65 53 21 5 2 0 0 0 0 0 0 0 0 0 0 0 0 0 0
0 0 0 0 0 11 462 167 44 4 60 250 308 209 139 170 65 10 0 1 1 22 1 1 0 62 149 235 122 48 30 12 0 0 0 0 0 0 0 0 0 0 0 0 0 0 0 0 0
0 0 0 0 9 58 294 125 22 18 50 299 431 325 236 87 59 24 2 2 1 2 1 0 33 20 222 210 141 67 35 2 0 0 0 0 0 0 0 0 0 0 0 0 0 0 0 0 0
0 0 0 0 67 133 135 55 0 9 1 235 379 306 156 67 43 57 39 4 0 0 16 89 44 129 215 151 73 28 1 1 0 0 0 0 2 1 0 0 0 0 0 0 0 0 0 0 0
0 0 0 0 62 108 62 27 6 3 9 314 324 346 111 69 53 64 47 7 0 32 29 63 130 193 137 40 18 6 0 0 0 0 0 0 0 0 0 0 0 0 0 0 0 0 0 0 0
0 9 0 2 60 63 10 0 0 43 417 429 215 253 126 103 45 44 47 23 47 45 31 53 178 194 50 0 0 0 0 0 0 8 11 68 1 9 3 0 0 0 0 0 0 0 0 0 0
95 90 77 115 134 91 0 0 0 0 221 352 134 154 154 115 21 0 0 59 84 89 118 169 208 82 3 0 0 0 4 108 224 256 184 93 7 0 0 0 0 0 0 0 0 0 0 0 0
170 127 82 108 92 35 27 3 61 53 345 236 121 134 127 78 22 20 16 13 38 118 174 265 205 65 19 0 3 31 147 193 121 96 56 0 0 0 0 0 0 0 0 0 0 0 0 0 0
85 51 23 35 32 1 0 9 181 122 416 366 239 195 113 71 48 10 23 0 15 96 108 176 81 25 10 4 11 67 143 57 16 0 0 0 0 0 0 0 0 0 0 0 0 0 0 0 0
0 0 0 0 26 12 0 38 141 105 442 518 313 242 180 105 85 0 45 2 55 71 106 228 103 17 22 9 24 75 33 0 0 0 0 0 0 0 0 0 0 0 0 0 0 0 0 0 0
0 0 0 0 1 7 32 39 27 213 430 489 428 378 334 212 164 33 159 64 136 55 79 65 68 10 14 7 2 0 0 0 0 0 0 0 0 0 0 0 0 0 0 0 0 0 0 0 0
4 0 0 0 0 0 2 49 9 140 249 316 542 358 398 268 271 100 209 134 20 2 14 0 7 0 2 0 0 0 0 0 0 0 0 0 0 0 0 0 0 0 0 0 0 0 0 0 0
0 0 0 0 0 0 0 0 0 6 164 260 261 420 246 172 226 115 145 9 0 32 7 6 12 4 0 0 0 0 0 0 0 0 0 0 0 0 0 0 0 0 0 0 0 0 0 0 0
0 0 0 0 0 0 0 0 0 0 68 97 106 288 117 2 8 29 41 12 10 31 4 10 17 1 0 0 0 0 0 0 0 0 0 0 0 0 0 0 0 0 0 0 0 0 0 0 0
0 0 0 0 0 0 0 0 0 0 22 43 22 60 73 0 0 0 4 5 14 40 23 21 27 6 0 0 0 0 0 0 0 0 0 0 0 0 0 0 0 0 0 0 0 0 0 0 0
0 0 0 0 0 0 0 0 0 0 0 15 0 0 0 0 0 0 0 5 8 33 29 11 7 0 0 0 0 0 0 0 0 0 0 0 0 0 0 0 0 0 0 0 0 0 0 0 0
0 0 0 0 0 0 0 0 0 0 0 0 0 0 0 0 0 0 0 0 7 8 12 0 9 44 10 0 0 0 0 0 0 0 0 0 0 0 0 0 0 0 0 0 0 0 0 0 0
0 0 0 0 0 0 0 0 0 0 0 0 0 0 0 0 0 0 94 130 107 48 52 33 55 108 39 0 0 0 0 0 0 0 0 0 0 0 0 0 0 0 0 0 0 0 0 0 0
0 0 0 0 0 0 0 0 0 0 1 0 0 0 0 0 0 0 107 273 238 247 164 103 171 230 92 60 26 0 0 0 0 0 0 0 0 0 0 0 0 0 0 0 0 0 0 0 0
0 0 0 0 0 0 0 0 0 3 14 3 0 0 0 0 0 1 122 294 373 399 302 192 247 178 57 49 0 0 0 0 0 0 0 0 0 0 0 0 0 0 0 0 0 0 0 0 0
0 0 0 0 0 0 0 0 0 2 28 0 0 0 0 20 43 87 238 336 414 462 412 256 192 159 24 0 0 0 0 0 0 0 0 0 0 0 0 0 0 0 0 0 0 0 0 0 0
8 1 0 0 0 0 0 0 0 0 1 0 0 0 4 72 211 304 338 349 436 415 351 274 104 28 0 0 0 0 0 0 0 0 0 0 0 0 0 0 0 0 0 0 0 0 0 0 0
0 0 0 0 0 0 0 0 0 0 0 0 0 0 6 171 344 506 522 489 471 479 239 80 19 0 0 0 0 0 0 0 0 0 0 0 0 0 0 0 0 0 0 0 0 0 0 0 0
CIN
-0 -0 -0 -0 -0 -0 -0 -0 -0 -19 -150 -112 -105 -77 -109 -182 -124 -59 -310 -394 -87 -11 -13 -25 -54 -105 -138 -131 -132 -104 -43 -49 -96 -222 -20 -0 -0 -0 -0 -0 -0 -0 -0 -0 -0 -0 -0 -0 -0
-0 -0 -0 -0 -0 -0 -0 -0 -76 -75 -98 -163 -134 -109 -115 -166 -149 -234 -333 -202 -62 -4 -2 -3 -16 -43 -69 -56 -89 -65 -15 -30 -147 -276 -0 -0 -0 -0 -171 -0 -0 -0 -0 -0 -0 -0 -0 -0 -0
-0 -0 -0 -0 -0 -0 -0 -0 -37 -47 -87 -140 -141 -187 -177 -149 -117 -208 -177 -98 -23 -0 -2 -0 -7 -26 -22 -2 -7 -15 -14 -70 -193 -343 -368 -79 -0 -0 -392 -477 -254 -0 -0 -0 -0 -0 -0 -0 -0
-0 -0 -0 -0 -0 -0 -0 -129 -132 -64 -83 -175 -211 -156 -164 -101 -52 -82 -83 -37 -14 -0 -0 -2 -31 -43 -45 -7 -7 -38 -53 -108 -236 -305 -333 -317 -358 -388 -440 -14 -0 -0 -0 -0 -0 -0 -0 -0 -0
-0 -0 -0 -0 -0 -0 -91 -106 -94 -65 -96 -156 -224 -178 -141 -62 -71 -163 -27 -5 -1 -1 -0 -12 -23 -13 -12 -6 -6 -77 -96 -151 -210 -301 -336 -282 -332 -410 -442 -0 -0 -0 -0 -0 -0 -0 -0 -0 -0
-0 -0 -0 -0 -0 -19 -100 -119 -73 -54 -92 -216 -124 -190 -101 -70 -48 -71 -37 -17 -12 -12 -12 -15 -6 -4 -31 -15 -29 -94 -167 -162 -199 -298 -318 -294 -358 -62 -0 -0 -0 -0 -0 -0 -0 -0 -0 -0 -0
-0 -0 -0 -0 -0 -0 -81 -162 -118 -87 -105 -150 -204 -89 -120 -42 -41 -53 -57 -40 -36 -62 -89 -41 -5 -10 -14 -24 -104 -132 -154 -185 -305 -347 -325 -410 -0 -0 -0 -0 -0 -0 -0 -0 -0 -0 -0 -0 -0
-0 -0 -0 -0 -0 -0 -97 -121 -192 -181 -156 -313 -196 -5 -182 -60 -79 -62 -40 -69 -100 -6 -21 -0 -33 -17 -13 -40 -94 -149 -221 -301 -392 -440 -477 -0 -0 -0 -0 -0 -0 -0 -0 -0 -0 -0 -0 -0 -0
-0 -0 -0 -0 -0 -29 -113 -98 -242 -327 -173 -143 -171 -174 -167 -87 -109 -165 -0 -0 -0 -3 -18 -42 -0 -31 -19 -66 -116 -218 -313 -422 -0 -0 -0 -0 -0 -0 -0 -0 -0 -0 -0 -0 -0 -0 -0 -0 -0
-0 -0 -0 -0 -43 -77 -89 -128 -176 -174 -135 -91 -78 -76 -58 -56 -42 -91 -27 -0 -0 -28 -10 -0 -69 -51 -16 -59 -96 -209 -360 -471 -0 -0 -0 -0 -0 -0 -0 -0 -0 -0 -0 -0 -0 -0 -0 -0 -0
-0 -0 -0 -0 -125 -125 -105 -186 -36 -158 -79 -64 -46 -63 -57 -45 -36 -19 -21 -37 -0 -0 -11 -45 -55 -12 -16 -87 -221 -350 -116 -435 -0 -0 -0 -0 -339 -152 -0 -0 -0 -0 -0 -0 -0 -0 -0 -0 -0
-0 -0 -0 -0 -134 -109 -133 -199 -177 -108 -7 -66 -81 -65 -87 -68 -56 -72 -31 -18 -9 -90 -98 -57 -28 -22 -50 -141 -304 -430 -0 -0 -0 -0 -0 -48 -0 -6 -0 -0 -0 -0 -0 -0 -0 -0 -0 -0 -0
-0 -45 -0 -59 -163 -135 -169 -27 -0 -125 -90 -119 -95 -122 -70 -58 -92 -76 -86 -90 -71 -118 -67 -47 -28 -28 -82 -0 -0 -0 -0 -0 -0 -64 -61 -148 -30 -177 -136 -0 -0 -0 -0 -0 -0 -0 -0 -0 -0
-133 -127 -175 -150 -115 -139 -0 -0 -0 -0 -130 -92 -146 -108 -100 -82 -132 -0 -34 -161 -114 -80 -49 -36 -32 -53 -83 -0 -0 -0 -162 -125 -79 -82 -111 -137 -130 -0 -0 -0 -0 -0 -0 -0 -0 -0 -0 -0 -0
-70 -68 -120 -100 -102 -81 -139 -81 -77 -169 -143 -123 -143 -111 -107 -70 -181 -241 -288 -315 -174 -78 -54 -39 -45 -142 -290 -0 -308 -167 -125 -95 -125 -134 -143 -9 -0 -0 -0 -0 -0 -0 -0 -0 -0 -0 -0 -0 -0
-40 -97 -60 -69 -95 -60 -66 -24 -114 -188 -140 -97 -115 -132 -141 -145 -204 -332 -278 -5 -279 -111 -105 -68 -172 -202 -324 -362 -201 -159 -91 -160 -215 -0 -0 -0 -0 -0 -0 -0 -0 -0 -0 -0 -0 -0 -0 -0 -0
-0 -14 -0 -27 -83 -107 -0 -55 -117 -177 -89 -92 -143 -143 -141 -143 -158 -0 -204 -343 -196 -191 -169 -98 -176 -248 -241 -273 -229 -154 -198 -0 -0 -0 -0 -0 -0 -0 -0 -0 -0 -0 -0 -0 -0 -0 -0 -0 -0
-0 -0 -0 -0 -6 -36 -87 -55 -131 -111 -85 -107 -142 -123 -121 -165 -162 -245 -193 -239 -175 -230 -223 -209 -225 -330 -304 -319 -78 -0 -0 -0 -0 -0 -0 -0 -0 -0 -0 -0 -0 -0 -0 -0 -0 -0 -0 -0 -0
-31 -0 -0 -0 -0 -0 -17 -32 -89 -97 -83 -94 -96 -138 -150 -189 -167 -241 -196 -212 -254 -130 -236 -1 -255 -1 -260 -0 -0 -0 -0 -0 -0 -0 -0 -0 -0 -0 -0 -0 -0 -0 -0 -0 -0 -0 -0 -0 -0
-0 -0 -0 -0 -0 -0 -0 -0 -0 -104 -72 -87 -116 -129 -171 -218 -243 -275 -245 -219 -0 -232 -104 -275 -275 -239 -0 -0 -0 -0 -0 -0 -0 -0 -0 -0 -0 -0 -0 -0 -0 -0 -0 -0 -0 -0 -0 -0 -0
-0 -0 -0 -0 -0 -0 -0 -0 -0 -0 -99 -104 -151 -119 -195 -129 -183 -357 -340 -387 -379 -323 -322 -325 -291 -63 -0 -0 -0 -0 -0 -0 -0 -0 -0 -0 -0 -0 -0 -0 -0 -0 -0 -0 -0 -0 -0 -0 -0
-0 -0 -0 -0 -0 -0 -0 -0 -0 -0 -90 -117 -188 -193 -232 -0 -0 -0 -399 -438 -432 -384 -378 -373 -334 -298 -0 -0 -0 -0 -0 -0 -0 -0 -0 -0 -0 -0 -0 -0 -0 -0 -0 -0 -0 -0 -0 -0 -0
-0 -0 -0 -0 -0 -0 -0 -0 -0 -0 -0 -169 -0 -0 -0 -0 -0 -0 -0 -381 -438 -364 -359 -362 -349 -0 -0 -0 -0 -0 -0 -0 -0 -0 -0 -0 -0 -0 -0 -0 -0 -0 -0 -0 -0 -0 -0 -0 -0
-0 -0 -0 -0 -0 -0 -0 -0 -0 -0 -0 -0 -0 -0 -0 -0 -0 -0 -0 -0 -370 -323 -298 -0 -142 -241 -256 -0 -0 -0 -0 -0 -0 -0 -0 -0 -0 -0 -0 -0 -0 -0 -0 -0 -0 -0 -0 -0 -0
-0 -0 -0 -0 -0 -0 -0 -0 -0 -0 -0 -0 -0 -0 -0 -0 -0 -0 -289 -313 -326 -298 -271 -272 -249 -197 -244 -0 -0 -0 -0 -0 -0 -0 -0 -0 -0 -0 -0 -0 -0 -0 -0 -0 -0 -0 -0 -0 -0
-0 -0 -0 -0 -0 -0 -0 -0 -0 -5 -82 -0 -0 -0 -0 -0 -0 -0 -265 -261 -283 -243 -255 -235 -211 -151 -182 -165 -156 -0 -21 -0 -0 -0 -0 -0 -0 -0 -0 -0 -0 -0 -0 -0 -0 -0 -0 -0 -0
-0 -0 -0 -0 -0 -0 -0 -0 -0 -129 -133 -152 -0 -0 -12 -0 -0 -125 -267 -253 -235 -220 -217 -237 -206 -191 -207 -156 -0 -0 -0 -0 -0 -0 -0 -0 -0 -0 -0 -0 -0 -0 -0 -0 -0 -0 -0 -0 -0
-0 -0 -0 -0 -0 -0 -0 -0 -0 -50 -69 -14 -0 -0 -61 -246 -314 -321 -279 -238 -213 -196 -201 -231 -211 -164 -124 -0 -0 -0 -0 -0 -0 -0 -0 -0 -0 -0 -0 -0 -0 -0 -0 -0 -0 -0 -0 -0 -0
-31 -57 -0 -0 -0 -0 -0 -0 -0 -0 -11 -0 -0 -0 -144 -234 -230 -225 -229 -240 -196 -207 -195 -191 -203 -179 -0 -0 -0 -0 -0 -0 -0 -0 -0 -0 -0 -0 -0 -0 -0 -0 -0 -0 -0 -0 -0 -0 -0
-0 -0 -2 -0 -0 -0 -0 -0 -0 -0 -0 -0 -0 -0 -115 -186 -153 -153 -160 -167 -170 -163 -210 -224 -152 -0 -0 -0 -0 -0 -0 -0 -0 -0 -0 -0 -0 -0 -0 -0 -0 -0 -0 -0 -0 -0 -0 -0 -0
Wind_Speed
15 15 15 16 19 20 26 24 23 31 27 23 20 21 15 15 17 19 12 2 6 7 9 10 10 11 13 13 13 15 9 10 12 15 16 17 19 18 17 17 18 20 22 23 24 25 25 25 26
14 14 15 15 20 23 25 23 24 23 16 14 14 17 18 20 16 14 5 3 8 7 8 9 9 9 10 11 12 13 8 10 11 14 14 16 17 16 16 17 19 20 22 24 25 26 27 27 27
14 15 17 17 17 22 21 19 25 21 16 20 17 16 19 20 17 8 7 3 4 5 8 10 10 9 9 9 10 11 8 7 11 11 13 15 15 14 15 17 18 20 21 23 24 26 26 27 26
13 15 16 18 19 20 22 26 28 20 18 16 16 18 17 20 18 10 4 4 4 3 5 9 11 12 12 8 10 9 5 7 8 10 11 12 13 13 14 16 17 19 20 22 23 25 26 26 26
14 15 17 18 18 18 20 22 17 15 16 18 18 17 17 18 12 6 5 2 1 3 5 9 11 10 14 7 8 8 6 4 6 8 11 15 14 13 13 14 16 18 19 20 21 23 26 27 27
14 14 16 19 19 21 19 19 18 17 14 16 14 15 17 15 10 6 4 4 3 1 3 7 11 7 12 6 4 6 3 3 5 11 16 12 11 10 12 14 16 17 18 20 21 23 24 26 26
14 15 17 19 21 19 19 18 20 19 20 20 16 18 17 13 11 7 5 5 4 3 7 11 2 5 7 5 4 2 2 5 15 12 8 10 10 12 12 14 16 17 19 20 21 21 21 23 24
12 14 17 19 21 22 17 18 18 19 19 18 18 15 17 12 11 9 6 4 3 1 5 10 5 8 4 3 3 2 3 4 15 19 13 11 11 9 12 15 16 17 18 19 19 21 22 22 23
13 16 22 23 21 19 18 18 18 19 19 18 19 15 8 6 9 8 7 5 3 7 5 6 11 9 4 4 1 3 3 32 19 6 6 7 8 12 14 13 14 16 17 18 19 20 21 22 24
16 18 21 19 21 19 16 20 20 18 16 18 15 10 7 7 8 6 5 5 4 4 17 8 11 6 4 3 5 11 21 18 5 1 7 9 9 9 11 12 14 15 16 17 19 20 21 23 24
19 25 22 24 21 16 15 20 20 18 20 15 6 6 7 7 7 4 2 7 11 11 8 8 10 11 3 18 29 29 30 22 2 9 6 7 7 9 11 12 14 15 15 16 18 20 22 24 25
25 28 22 20 15 14 16 18 20 20 20 8 7 8 8 7 8 10 6 8 13 12 16 11 20 10 29 30 30 30 30 1 6 5 5 6 7 10 12 12 12 14 15 15 18 20 22 24 25
20 21 16 11 11 16 15 17 18 16 13 12 12 11 16 15 13 12 15 15 16 13 6 29 31 31 30 30 29 11 11 13 9 10 7 6 6 10 10 12 12 14 14 15 18 20 22 23 25
18 12 11 10 13 19 17 19 18 13 8 14 14 9 15 18 14 12 25 12 8 33 31 32 31 31 30 30 29 24 13 5 7 8 8 8 8 9 10 10 11 13 13 16 19 20 22 24 25
12 12 13 14 13 20 19 20 17 12 12 14 14 12 17 23 22 26 29 31 34 32 31 30 31 31 27 30 22 17 12 12 7 7 8 7 8 9 9 10 12 12 14 16 19 20 22 25 26
14 15 17 19 19 21 16 18 10 14 17 17 15 12 16 27 28 29 31 31 31 30 28 28 25 27 22 16 18 11 13 7 7 8 8 7 8 9 9 10 11 12 14 17 19 21 24 25 26
17 13 17 17 16 13 10 11 12 15 13 17 18 25 25 27 28 28 31 30 26 26 23 24 19 21 18 16 12 11 8 7 7 8 8 8 9 8 9 9 11 12 15 17 19 23 24 25 27
18 16 15 17 16 18 18 21 7 19 22 21 24 25 25 26 28 29 30 30 28 25 22 18 19 20 17 11 9 7 6 6 7 8 8 8 8 9 9 10 11 13 15 18 21 22 24 23 26
19 19 22 24 23 23 30 24 15 17 17 17 21 24 25 25 27 27 27 25 18 17 15 16 16 15 13 10 7 5 5 6 7 7 7 7 7 8 9 10 11 13 17 19 20 22 22 24 27
22 20 22 21 18 15 18 30 2 12 15 20 24 26 27 26 25 26 25 21 19 19 17 15 14 14 12 8 4 4 5 5 5 5 6 6 6 7 8 9 11 13 17 19 20 21 23 25 27
23 24 24 23 21 14 16 23 3 21 6 26 26 26 24 25 24 23 22 19 16 18 17 16 16 14 11 8 3 5 5 7 6 6 6 5 5 5 6 8 11 14 16 17 20 23 24 27 27
22 20 21 21 19 18 12 20 16 2 24 25 24 24 24 24 23 20 18 16 18 20 15 14 12 13 12 11 6 3 1 4 6 4 4 3 4 6 7 10 12 13 16 18 21 23 25 26 30
20 21 19 15 20 18 15 18 19 19 19 27 24 20 19 22 23 19 18 19 14 12 13 10 8 9 10 9 6 3 5 6 7 4 3 4 7 10 10 10 12 14 17 21 23 24 25 27 30
17 15 15 16 16 19 20 20 23 17 14 20 17 20 23 21 21 22 15 10 9 9 10 11 13 12 11 8 5 5 3 3 5 4 5 6 10 11 12 13 15 17 21 24 25 27 28 30 31
15 16 19 20 20 21 22 22 24 27 28 30 15 19 21 20 20 15 16 14 11 14 14 11 10 8 6 5 5 5 4 3 4 5 5 7 9 12 11 11 16 17 24 26 29 29 30 31 33
17 14 18 20 21 22 21 23 19 20 23 13 8 14 10 14 16 15 16 14 12 14 12 8 7 8 6 5 5 5 5 5 6 8 8 9 11 9 13 13 16 20 26 30 30 30 31 32 32
15 14 14 20 20 20 18 23 26 24 19 16 11 3 1 9 11 14 13 13 11 10 11 6 6 6 6 5 5 5 6 7 9 10 9 9 9 10 14 15 24 26 26 27 28 30 31 31 31
18 11 17 18 17 20 19 23 21 24 20 16 13 6 3 1 2 5 8 10 9 9 8 5 6 5 4 4 5 5 5 6 7 7 6 7 10 15 20 23 24 25 24 26 29 30 29 30 32
19 17 15 16 16 18 21 20 19 17 16 17 16 11 6 3 3 5 7 7 8 4 5 4 4 4 4 4 3 3 4 5 6 7 8 12 14 14 20 21 20 20 26 28 28 30 31 33 34
23 17 15 19 16 15 19 20 15 16 11 16 15 16 10 5 4 5 6 5 4 3 3 4 4 4 4 3 3 4 5 7 8 10 11 10 15 17 16 19 18 23 26 27 29 31 32 32 34
Wind_Direction
330 316 309 292 281 281 267 270 280 269 278 288 290 285 293 309 295 291 318 346 118 131 129 136 134 125 118 109 101 96 81 72 66 67 64 69 72 68 64 58 52 52 48 47 46 42 33 34 36
332 313 301 298 282 270 268 277 279 288 294 301 302 299 301 294 308 312 317 84 126 131 134 138 137 128 117 111 101 96 88 74 69 68 67 73 72 66 63 59 56 53 51 50 48 44 39 38 39
323 307 285 288 291 273 275 284 282 288 296 288 295 310 301 294 316 315 324 125 131 146 142 138 138 133 118 110 99 97 86 71 71 68 73 75 73 69 65 61 58 54 50 48 47 43 37 35 35
325 305 290 288 283 285 287 282 284 279 291 299 303 305 310 305 303 313 22 83 107 154 162 146 144 136 125 121 107 97 85 76 68 71 72 74 73 69 66 63 58 53 50 45 42 42 37 34 33
317 299 284 284 288 291 295 297 303 292 290 293 301 304 302 314 349 33 46 50 33 139 145 142 136 144 121 144 116 103 94 67 66 74 77 82 79 75 67 63 58 55 48 39 32 31 36 35 33
307 299 287 278 286 290 299 300 296 291 295 290 316 312 307 317 350 11 356 357 11 20 116 123 131 173 112 155 130 98 97 67 76 83 88 81 76 71 65 60 56 49 43 38 36 35 32 32 33
301 295 287 287 281 290 297 305 298 293 290 291 312 301 305 327 344 359 22 4 10 88 112 114 181 199 133 155 132 108 94 91 95 84 79 79 76 70 62 58 53 46 42 36 31 27 27 29 25
311 300 291 286 283 283 306 312 310 305 299 299 309 314 291 309 352 8 3 15 46 122 133 112 144 112 143 147 125 114 112 100 96 99 87 83 72 56 55 57 53 37 29 27 26 25 20 13 11
312 295 280 272 290 290 298 314 318 311 305 305 312 320 342 337 21 18 27 36 74 126 120 118 111 108 222 237 235 111 143 150 112 78 74 60 51 62 59 38 29 25 27 21 13 10 13 14 4
297 286 282 286 287 299 309 307 323 321 319 312 330 4 19 41 37 43 61 72 120 132 103 121 120 119 232 249 240 222 201 211 235 65 69 61 53 30 24 23 12 11 15 17 17 10 11 8 2
291 271 284 275 286 304 319 309 321 320 314 316 346 36 59 60 60 25 37 107 125 134 106 106 127 221 151 212 177 177 174 202 66 85 55 44 6 2 2 6 16 14 20 12 9 11 6 3 358
279 270 287 293 301 312 315 319 318 313 312 7 68 76 70 82 91 95 82 111 127 131 121 132 199 227 159 175 168 171 164 235 84 56 47 7 10 24 3 6 20 20 18 12 13 9 2 2 358
280 291 293 310 305 295 317 334 333 339 5 59 77 74 91 95 99 92 101 104 113 123 172 196 167 164 168 166 177 192 111 106 93 97 65 38 11 14 24 20 26 19 15 12 9 7 4 3 1
306 341 340 312 306 279 304 322 330 332 35 83 88 80 97 102 105 88 118 112 159 180 163 169 167 169 166 162 161 140 116 72 71 68 46 49 45 37 28 34 25 18 20 14 9 4 1 359 359
343 317 346 316 338 288 294 307 312 331 91 100 95 98 116 125 115 130 134 141 153 157 162 156 162 162 146 163 134 123 110 108 66 50 44 49 48 42 41 33 27 25 15 11 7 3 360 355 353
285 270 277 226 287 284 293 280 343 76 90 101 96 95 113 139 151 164 158 146 151 155 149 147 136 145 130 119 130 107 118 76 57 57 55 54 53 52 43 28 27 21 12 7 4 359 354 352 351
240 300 240 243 226 301 297 279 74 95 91 98 102 130 138 148 167 169 175 161 144 147 137 138 129 133 127 121 107 107 89 63 47 44 51 55 50 50 33 29 28 19 9 3 359 353 352 351 350
257 251 244 251 280 267 249 227 329 119 133 126 133 139 142 152 164 164 165 165 157 148 138 129 132 134 126 106 96 70 41 27 38 46 53 51 54 43 37 28 23 13 6 358 354 352 351 351 349
249 249 245 245 241 221 221 234 267 129 129 130 142 148 150 154 160 160 159 156 137 135 133 134 135 134 127 114 102 61 58 41 50 53 63 52 45 33 24 23 15 7 357 354 352 350 351 349 348
214 238 238 255 266 201 234 218 275 138 148 156 162 164 168 167 160 163 161 152 150 151 149 146 146 146 144 137 106 39 53 36 55 52 24 22 25 22 23 15 3 359 355 354 354 352 347 346 347
223 242 246 235 272 316 290 247 108 255 283 179 181 176 167 167 161 159 160 158 155 162 162 160 161 160 158 151 107 359 6 1 359 358 359 13 18 20 12 2 357 354 353 351 349 348 345 340 342
221 258 270 258 258 260 324 283 304 101 174 179 179 177 178 175 173 166 162 162 167 171 166 168 168 171 169 164 163 161 208 328 331 337 354 6 7 356 352 351 353 352 351 350 348 349 345 342 338
229 267 290 311 287 304 325 306 286 224 173 194 190 183 180 180 179 175 176 180 173 167 169 169 169 174 179 179 189 227 304 321 333 334 332 339 341 340 344 348 348 346 348 352 349 345 342 340 336
332 331 314 320 314 299 294 282 274 304 187 200 195 193 190 187 186 186 184 181 185 180 174 174 174 178 182 194 216 252 271 290 318 315 318 326 335 340 341 343 348 345 337 339 345 342 338 335 334
333 315 304 298 302 302 295 296 293 284 268 241 194 193 191 189 186 186 182 181 184 183 182 184 182 187 195 209 241 226 235 277 282 300 304 315 326 334 336 343 347 346 335 333 335 338 335 336 334
303 322 316 312 300 300 305 294 305 310 302 338 164 175 184 187 187 189 187 188 189 187 193 198 201 206 232 248 237 219 258 282 301 313 314 317 333 340 350 341 336 335 331 327 331 334 333 334 335
311 324 345 314 309 310 316 298 287 296 309 335 358 35 148 168 178 187 188 192 189 192 197 215 212 236 247 233 239 239 276 288 306 316 328 340 337 343 337 336 327 329 333 330 334 335 333 333 334
302 328 323 321 316 312 314 289 308 291 295 319 348 31 26 99 146 168 178 180 186 191 200 226 246 247 241 246 256 265 287 304 320 333 333 352 344 335 325 327 327 324 331 330 331 334 334 332 332
294 306 315 314 317 319 313 311 307 320 309 314 329 358 14 70 122 145 157 171 179 204 232 245 250 252 255 265 268 278 314 333 347 345 348 339 329 321 325 327 324 319 326 328 330 332 332 331 331
297 293 299 297 312 318 311 309 322 320 325 318 324 319 331 2 80 126 144 160 180 214 238 253 259 279 290 286 317 325 323 331 338 332 333 335 331 325 323 326 322 326 328 330 331 331 332 332 331